TimeEDT,TemperatureF,Dew PointF,Humidity,Sea Level PressureIn,VisibilityMPH,Wind Direction,Wind SpeedMPH,Gust SpeedMPH,PrecipitationIn,Events,Conditions,WindDirDegrees,DateUTC
12:53 AM,64.9,63.0,93,29.88,10.0,SSE,4.6,-,N/A,,Mostly Cloudy,160,2013-05-23 04:53:00
1:53 AM,64.0,63.0,96,29.86,6.0,South,3.5,-,N/A,,Clear,170,2013-05-23 05:53:00
2:37 AM,64.4,62.6,94,29.89,6.0,SW,6.9,-,N/A,,Overcast,230,2013-05-23 06:37:00
2:53 AM,64.9,64.0,97,29.87,6.0,SSW,3.5,-,N/A,,Overcast,210,2013-05-23 06:53:00
3:53 AM,64.9,63.0,93,29.86,8.0,South,5.8,-,N/A,,Overcast,180,2013-05-23 07:53:00
4:53 AM,64.9,63.0,93,29.85,10.0,South,5.8,-,N/A,,Partly Cloudy,170,2013-05-23 08:53:00
5:53 AM,64.9,63.0,93,29.85,8.0,South,4.6,-,N/A,,Clear,180,2013-05-23 09:53:00
6:53 AM,64.9,63.0,93,29.86,6.0,South,3.5,-,N/A,,Partly Cloudy,190,2013-05-23 10:53:00
7:53 AM,66.0,64.0,93,29.86,7.0,SSE,3.5,-,N/A,,Overcast,150,2013-05-23 11:53:00
8:53 AM,68.0,64.9,90,29.87,6.0,Calm,Calm,-,0.01,Rain,Light Rain,0,2013-05-23 12:53:00
9:53 AM,69.1,66.0,90,29.88,9.0,SSW,3.5,-,0.00,Rain,Light Rain,210,2013-05-23 13:53:00
10:53 AM,69.1,64.9,87,29.88,9.0,Calm,Calm,-,0.01,Rain,Light Rain,0,2013-05-23 14:53:00
11:53 AM,70.0,66.0,87,29.88,10.0,SSE,4.6,-,0.01,,Overcast,160,2013-05-23 15:53:00
12:53 PM,72.0,66.0,81,29.87,10.0,Calm,Calm,-,N/A,,Overcast,0,2013-05-23 16:53:00
1:53 PM,75.9,64.9,69,29.84,10.0,South,6.9,-,N/A,,Mostly Cloudy,190,2013-05-23 17:53:00
2:53 PM,77.0,64.0,64,29.81,10.0,South,6.9,-,N/A,,Scattered Clouds,170,2013-05-23 18:53:00
3:53 PM,78.1,64.0,62,29.79,10.0,SSE,6.9,-,N/A,,Clear,160,2013-05-23 19:53:00
4:53 PM,75.0,64.9,71,29.78,10.0,South,6.9,-,N/A,,Scattered Clouds,180,2013-05-23 20:53:00
5:53 PM,72.0,64.9,78,29.78,10.0,Calm,Calm,-,0.02,Rain,Light Rain,0,2013-05-23 21:53:00
6:53 PM,68.0,64.0,87,29.75,10.0,South,6.9,-,0.00,,Scattered Clouds,170,2013-05-23 22:53:00
7:53 PM,68.0,61.0,78,29.80,3.0,West,12.7,-,0.06,Rain,Heavy Rain,280,2013-05-23 23:53:00
8:53 PM,64.9,62.1,90,29.79,10.0,WNW,3.5,-,0.02,,Overcast,300,2013-05-24 00:53:00
9:53 PM,64.0,62.1,93,29.81,10.0,SW,3.5,-,0.01,Rain,Light Rain,230,2013-05-24 01:53:00
10:53 PM,64.0,62.1,93,29.81,9.0,Calm,Calm,-,0.08,Rain,Light Rain,0,2013-05-24 02:53:00
11:53 PM,64.0,62.1,93,29.79,10.0,Calm,Calm,-,0.02,,Overcast,0,2013-05-24 03:53:00